• In Austria
  • List of Countries
  • For 7 days
  • Water Temperature
  • Satellite Maps
  • Weather Map
  • News
  • Weather Widgets
  • user-avatar
    Login

    Hourly Weather Gjirokaster

    Today, 11 December, Monday

    Time Temperature Precipitation Wind Pressure Humidity
    00:00 -5°C° 0 mm 3 mps 651 mmHg 82%
    01:00 -5°C° 0 mm 3 mps 651 mmHg 81%
    02:00 -5°C° 0 mm 3 mps 651 mmHg 80%
    03:00 -5°C° 0 mm 3 mps 651 mmHg 78%
    04:00 -5°C° 0 mm 4 mps 651 mmHg 76%
    05:00 -5°C° 0 mm 4 mps 651 mmHg 76%
    06:00 -5°C° 0 mm 4 mps 651 mmHg 76%
    07:00 -5°C° 0 mm 4 mps 651 mmHg 76%
    08:00 -4°C° 0 mm 5 mps 652 mmHg 74%
    09:00 -1°C° 0 mm 5 mps 652 mmHg 72%
    10:00 +1°C° 0 mm 5 mps 653 mmHg 71%
    11:00 +1°C° 0 mm 6 mps 653 mmHg 72%
    12:00 +1°C° 0 mm 6 mps 653 mmHg 74%
    13:00 +2°C° 0 mm 6 mps 653 mmHg 76%
    14:00 +1°C° 0 mm 6 mps 653 mmHg 80%
    15:00 0°C° 0 mm 5 mps 652 mmHg 83%
    16:00 0°C° 0 mm 5 mps 652 mmHg 87%
    17:00 -1°C° 0 mm 5 mps 652 mmHg 87%
    18:00 -1°C° 0 mm 5 mps 652 mmHg 87%
    19:00 -1°C° 0 mm 5 mps 652 mmHg 88%
    20:00 -1°C° 0 mm 5 mps 653 mmHg 87%
    21:00 -1°C° 0 mm 5 mps 653 mmHg 87%
    22:00 -1°C° 0 mm 5 mps 653 mmHg 86%
    23:00 0°C° 0.1 mm 5 mps 653 mmHg 87%

    Tomorrow, 12 December, Tuesday

    Time Temperature Precipitation Wind Pressure Humidity
    00:00 0°C° 0.1 mm 5 mps 653 mmHg 88%
    01:00 0°C° 0.1 mm 5 mps 653 mmHg 88%
    02:00 0°C° 0.2 mm 5 mps 653 mmHg 89%
    03:00 +1°C° 0.2 mm 5 mps 653 mmHg 90%
    04:00 +1°C° 0.2 mm 5 mps 653 mmHg 91%
    05:00 +1°C° 0.2 mm 5 mps 653 mmHg 91%
    06:00 +1°C° 0.2 mm 4 mps 654 mmHg 92%
    07:00 +1°C° 0.2 mm 4 mps 654 mmHg 93%
    08:00 +2°C° 0.1 mm 5 mps 654 mmHg 92%
    09:00 +2°C° 0.1 mm 5 mps 654 mmHg 92%
    10:00 +3°C° 0.1 mm 5 mps 655 mmHg 91%
    11:00 +5°C° 0.1 mm 5 mps 655 mmHg 89%
    12:00 +5°C° 0.1 mm 5 mps 655 mmHg 86%
    13:00 +6°C° 0.1 mm 5 mps 655 mmHg 83%
    14:00 +5°C° 0.1 mm 5 mps 655 mmHg 86%
    15:00 +5°C° 0.1 mm 4 mps 654 mmHg 89%
    16:00 +4°C° 0.1 mm 4 mps 654 mmHg 91%
    17:00 +3°C° 0 mm 4 mps 654 mmHg 91%
    18:00 +3°C° 0 mm 4 mps 655 mmHg 92%
    19:00 +1°C° 0 mm 4 mps 655 mmHg 92%
    20:00 +1°C° 0 mm 4 mps 655 mmHg 91%
    21:00 +1°C° 0 mm 4 mps 655 mmHg 91%
    22:00 +1°C° 0 mm 4 mps 655 mmHg 90%
    23:00 +1°C° 0 mm 4 mps 655 mmHg 90%

    Day after tomorrow, 13 December, Wednesday

    Time Temperature Precipitation Wind Pressure Humidity
    00:00 0°C° 0 mm 4 mps 655 mmHg 90%
    01:00 +1°C° 0 mm 3 mps 655 mmHg 90%
    02:00 +1°C° 0 mm 3 mps 655 mmHg 91%
    03:00 +1°C° 0 mm 3 mps 655 mmHg 91%
    04:00 +1°C° 0 mm 3 mps 654 mmHg 92%
    05:00 +1°C° 0 mm 3 mps 654 mmHg 92%
    06:00 +1°C° 0 mm 3 mps 655 mmHg 92%
    07:00 +1°C° 0 mm 3 mps 655 mmHg 93%
    08:00 +3°C° 0 mm 4 mps 655 mmHg 90%
    09:00 +4°C° 0 mm 4 mps 655 mmHg 87%
    10:00 +5°C° 0 mm 4 mps 656 mmHg 84%
    11:00 +6°C° 0 mm 4 mps 655 mmHg 82%
    12:00 +6°C° 0 mm 4 mps 655 mmHg 79%
    13:00 +7°C° 0 mm 4 mps 655 mmHg 77%
    14:00 +6°C° 0.1 mm 4 mps 654 mmHg 81%
    15:00 +5°C° 0.1 mm 3 mps 654 mmHg 85%
    16:00 +4°C° 0.1 mm 3 mps 654 mmHg 90%
    17:00 +4°C° 0.1 mm 3 mps 653 mmHg 91%
    18:00 +3°C° 0.1 mm 3 mps 653 mmHg 92%
    19:00 +3°C° 0.1 mm 4 mps 653 mmHg 93%
    20:00 +3°C° 0.3 mm 3 mps 653 mmHg 93%
    21:00 +3°C° 0.3 mm 3 mps 653 mmHg 93%
    22:00 +3°C° 0.3 mm 3 mps 653 mmHg 94%
    23:00 +3°C° 0.9 mm 3 mps 653 mmHg 94%

    14 December, Thursday

    Time Temperature Precipitation Wind Pressure Humidity
    00:00 +4°C° 0.9 mm 2 mps 653 mmHg 95%
    01:00 +4°C° 0.9 mm 2 mps 652 mmHg 96%
    02:00 +4°C° 0.5 mm 2 mps 652 mmHg 96%
    03:00 +4°C° 0.5 mm 2 mps 652 mmHg 96%
    04:00 +4°C° 0.5 mm 2 mps 652 mmHg 95%
    05:00 +3°C° 0 mm 2 mps 652 mmHg 95%
    06:00 +3°C° 0 mm 2 mps 652 mmHg 94%
    07:00 +3°C° 0 mm 2 mps 653 mmHg 93%
    08:00 +3°C° 0 mm 2 mps 653 mmHg 88%
    09:00 +4°C° 0 mm 2 mps 653 mmHg 82%
    10:00 +4°C° 0 mm 2 mps 653 mmHg 77%
    11:00 +5°C° 0 mm 2 mps 653 mmHg 72%
    12:00 +5°C° 0 mm 2 mps 653 mmHg 68%
    13:00 +5°C° 0 mm 2 mps 652 mmHg 63%
    14:00 +5°C° 0 mm 2 mps 652 mmHg 67%
    15:00 +5°C° 0 mm 1 mps 652 mmHg 71%
    16:00 +4°C° 0 mm 1 mps 652 mmHg 75%
    17:00 +3°C° 0 mm 1 mps 652 mmHg 78%
    18:00 +3°C° 0 mm 1 mps 652 mmHg 80%
    19:00 +2°C° 0 mm 1 mps 652 mmHg 82%
    20:00 +2°C° 0 mm 1 mps 652 mmHg 82%
    21:00 +2°C° 0 mm 1 mps 652 mmHg 81%
    22:00 -1°C° 0 mm 2 mps 652 mmHg 81%
    23:00 -1°C° 0 mm 2 mps 652 mmHg 80%

    15 December, Friday

    Time Temperature Precipitation Wind Pressure Humidity
    00:00 -1°C° 0 mm 2 mps 652 mmHg 79%
    01:00 -1°C° 0 mm 3 mps 651 mmHg 78%
    02:00 -1°C° 0 mm 3 mps 651 mmHg 77%
    03:00 -1°C° 0 mm 3 mps 651 mmHg 76%
    04:00 -2°C° 0 mm 3 mps 651 mmHg 76%
    05:00 -2°C° 0 mm 3 mps 651 mmHg 77%
    06:00 -2°C° 0 mm 3 mps 651 mmHg 79%
    07:00 -1°C° 0 mm 3 mps 651 mmHg 80%
    08:00 -1°C° 0 mm 4 mps 651 mmHg 80%
    09:00 +1°C° 0 mm 4 mps 651 mmHg 79%
    10:00 +4°C° 0 mm 4 mps 651 mmHg 78%
    11:00 +3°C° 0 mm 5 mps 651 mmHg 78%
    12:00 +3°C° 0 mm 5 mps 651 mmHg 78%
    13:00 +5°C° 0 mm 5 mps 651 mmHg 77%
    14:00 +3°C° 0 mm 5 mps 650 mmHg 81%
    15:00 +3°C° 0 mm 5 mps 650 mmHg 85%
    16:00 +2°C° 0 mm 6 mps 650 mmHg 88%
    17:00 +2°C° 0 mm 6 mps 650 mmHg 89%
    18:00 +1°C° 0 mm 6 mps 650 mmHg 90%
    19:00 +1°C° 0 mm 6 mps 650 mmHg 90%
    20:00 +1°C° 0.1 mm 6 mps 650 mmHg 90%
    21:00 +1°C° 0.1 mm 6 mps 650 mmHg 90%
    22:00 +1°C° 0.1 mm 6 mps 650 mmHg 89%
    23:00 +1°C° 0.2 mm 6 mps 649 mmHg 90%

    16 December, Saturday

    Time Temperature Precipitation Wind Pressure Humidity
    00:00 +1°C° 0.2 mm 6 mps 649 mmHg 90%
    01:00 +1°C° 0.2 mm 6 mps 649 mmHg 91%
    02:00 +2°C° 0.1 mm 6 mps 649 mmHg 92%
    03:00 +2°C° 0.1 mm 6 mps 648 mmHg 92%
    04:00 +2°C° 0.1 mm 7 mps 648 mmHg 93%
    05:00 +2°C° 0.1 mm 7 mps 648 mmHg 93%
    06:00 +2°C° 0.1 mm 7 mps 648 mmHg 92%
    07:00 +2°C° 0.1 mm 7 mps 648 mmHg 92%
    08:00 +3°C° 0.1 mm 7 mps 648 mmHg 91%
    09:00 +3°C° 0.1 mm 7 mps 648 mmHg 89%
    10:00 +4°C° 0.1 mm 7 mps 648 mmHg 88%
    11:00 +4°C° 0.9 mm 7 mps 647 mmHg 88%
    12:00 +4°C° 0.9 mm 7 mps 647 mmHg 89%
    13:00 +4°C° 0.9 mm 7 mps 646 mmHg 89%
    14:00 +3°C° 1.7 mm 7 mps 646 mmHg 90%
    15:00 +3°C° 1.7 mm 7 mps 645 mmHg 91%
    16:00 +3°C° 1.7 mm 7 mps 644 mmHg 92%
    17:00 +2°C° 2.4 mm 7 mps 644 mmHg 91%
    18:00 +1°C° 2.4 mm 8 mps 643 mmHg 91%
    19:00 +1°C° 2.4 mm 8 mps 643 mmHg 90%
    20:00 +1°C° 3.9 mm 8 mps 642 mmHg 91%
    21:00 +1°C° 3.9 mm 8 mps 641 mmHg 92%
    22:00 +1°C° 3.9 mm 8 mps 641 mmHg 93%
    23:00 +1°C° 3.6 mm 8 mps 640 mmHg 93%
    Show more